Hourly Weather Kitwe

Today, 30 July, Friday

Time Temperature Precipitation Wind Pressure Humidity
00:00 +14°C° 0 mm 2 mps 661 mmHg 52%
01:00 +13°C° 0 mm 2 mps 661 mmHg 55%
02:00 +12°C° 0 mm 1 mps 661 mmHg 59%
03:00 +12°C° 0 mm 1 mps 661 mmHg 62%
04:00 +11°C° 0 mm 1 mps 660 mmHg 65%
05:00 +11°C° 0 mm 1 mps 660 mmHg 68%
06:00 +13°C° 0 mm 2 mps 661 mmHg 63%
07:00 +14°C° 0 mm 2 mps 662 mmHg 58%
08:00 +16°C° 0 mm 3 mps 662 mmHg 54%
09:00 +19°C° 0 mm 3 mps 663 mmHg 45%
10:00 +21°C° 0 mm 3 mps 663 mmHg 36%
11:00 +25°C° 0 mm 3 mps 664 mmHg 27%
12:00 +26°C° 0 mm 3 mps 663 mmHg 25%
13:00 +28°C° 0 mm 3 mps 663 mmHg 22%
14:00 +29°C° 0 mm 2 mps 662 mmHg 19%
15:00 +28°C° 0 mm 3 mps 662 mmHg 20%
16:00 +28°C° 0 mm 3 mps 662 mmHg 21%
17:00 +27°C° 0 mm 3 mps 662 mmHg 21%
18:00 +25°C° 0 mm 3 mps 662 mmHg 26%
19:00 +22°C° 0 mm 4 mps 662 mmHg 31%
20:00 +20°C° 0 mm 4 mps 662 mmHg 36%
21:00 +19°C° 0 mm 4 mps 662 mmHg 39%
22:00 +18°C° 0 mm 3 mps 662 mmHg 43%
23:00 +17°C° 0 mm 3 mps 662 mmHg 46%

Tomorrow, 31 July, Saturday

Time Temperature Precipitation Wind Pressure Humidity
00:00 +17°C° 0 mm 3 mps 662 mmHg 48%
01:00 +16°C° 0 mm 3 mps 662 mmHg 49%
02:00 +14°C° 0 mm 4 mps 662 mmHg 50%
03:00 +13°C° 0 mm 3 mps 662 mmHg 52%
04:00 +13°C° 0 mm 3 mps 662 mmHg 55%
05:00 +12°C° 0 mm 3 mps 662 mmHg 57%
06:00 +13°C° 0 mm 3 mps 662 mmHg 54%
07:00 +14°C° 0 mm 4 mps 663 mmHg 51%
08:00 +15°C° 0 mm 4 mps 664 mmHg 48%
09:00 +19°C° 0 mm 4 mps 664 mmHg 42%
10:00 +21°C° 0 mm 4 mps 665 mmHg 36%
11:00 +23°C° 0 mm 4 mps 665 mmHg 31%
12:00 +26°C° 0 mm 4 mps 665 mmHg 28%
13:00 +27°C° 0 mm 4 mps 664 mmHg 26%
14:00 +28°C° 0 mm 4 mps 663 mmHg 23%
15:00 +28°C° 0 mm 3 mps 663 mmHg 24%
16:00 +28°C° 0 mm 3 mps 662 mmHg 24%
17:00 +27°C° 0 mm 3 mps 662 mmHg 24%
18:00 +25°C° 0 mm 3 mps 662 mmHg 29%
19:00 +22°C° 0 mm 4 mps 662 mmHg 33%
20:00 +20°C° 0 mm 4 mps 663 mmHg 38%
21:00 +19°C° 0 mm 3 mps 662 mmHg 41%
22:00 +18°C° 0 mm 3 mps 662 mmHg 45%
23:00 +17°C° 0 mm 2 mps 662 mmHg 49%

Day after tomorrow, 1 August, Sunday

Time Temperature Precipitation Wind Pressure Humidity
00:00 +16°C° 0 mm 3 mps 662 mmHg 52%
01:00 +16°C° 0 mm 3 mps 662 mmHg 55%
02:00 +14°C° 0 mm 3 mps 662 mmHg 58%
03:00 +14°C° 0 mm 3 mps 661 mmHg 62%
04:00 +13°C° 0 mm 3 mps 661 mmHg 66%
05:00 +14°C° 0 mm 2 mps 661 mmHg 70%
06:00 +14°C° 0 mm 3 mps 662 mmHg 68%
07:00 +16°C° 0 mm 3 mps 663 mmHg 66%
08:00 +17°C° 0 mm 4 mps 663 mmHg 64%
09:00 +19°C° 0 mm 4 mps 664 mmHg 55%
10:00 +22°C° 0 mm 4 mps 664 mmHg 46%
11:00 +25°C° 0 mm 4 mps 664 mmHg 37%
12:00 +27°C° 0 mm 4 mps 664 mmHg 33%
13:00 +28°C° 0 mm 3 mps 663 mmHg 29%
14:00 +29°C° 0 mm 3 mps 662 mmHg 25%
15:00 +29°C° 0 mm 3 mps 662 mmHg 25%
16:00 +28°C° 0 mm 2 mps 661 mmHg 25%
17:00 +28°C° 0 mm 2 mps 661 mmHg 25%
18:00 +26°C° 0 mm 3 mps 661 mmHg 31%
19:00 +24°C° 0 mm 3 mps 661 mmHg 37%
20:00 +21°C° 0 mm 4 mps 662 mmHg 43%
21:00 +19°C° 0 mm 3 mps 662 mmHg 51%
22:00 +18°C° 0 mm 2 mps 662 mmHg 58%
23:00 +17°C° 0 mm 2 mps 662 mmHg 66%

2 August, Monday

Time Temperature Precipitation Wind Pressure Humidity
00:00 +16°C° 0 mm 2 mps 661 mmHg 69%
01:00 +15°C° 0 mm 2 mps 661 mmHg 73%
02:00 +14°C° 0 mm 1 mps 661 mmHg 76%
03:00 +14°C° 0 mm 1 mps 661 mmHg 78%
04:00 +14°C° 0 mm 1 mps 660 mmHg 79%
05:00 +13°C° 0 mm 1 mps 660 mmHg 81%
06:00 +15°C° 0 mm 2 mps 661 mmHg 75%
07:00 +16°C° 0 mm 2 mps 662 mmHg 69%
08:00 +17°C° 0 mm 2 mps 663 mmHg 63%
09:00 +20°C° 0 mm 2 mps 663 mmHg 53%
10:00 +24°C° 0 mm 2 mps 664 mmHg 43%
11:00 +27°C° 0 mm 2 mps 664 mmHg 33%
12:00 +28°C° 0 mm 2 mps 663 mmHg 29%
13:00 +29°C° 0 mm 2 mps 663 mmHg 26%
14:00 +31°C° 0 mm 1 mps 662 mmHg 22%
15:00 +30°C° 0 mm 1 mps 662 mmHg 22%
16:00 +29°C° 0 mm 1 mps 661 mmHg 22%
17:00 +29°C° 0 mm 1 mps 661 mmHg 22%
18:00 +27°C° 0 mm 1 mps 661 mmHg 26%
19:00 +25°C° 0 mm 1 mps 661 mmHg 29%
20:00 +23°C° 0 mm 1 mps 661 mmHg 33%
21:00 +22°C° 0 mm 1 mps 661 mmHg 36%
22:00 +21°C° 0 mm 1 mps 661 mmHg 40%
23:00 +19°C° 0 mm 2 mps 662 mmHg 43%

3 August, Tuesday

Time Temperature Precipitation Wind Pressure Humidity
00:00 +18°C° 0 mm 2 mps 661 mmHg 46%
01:00 +17°C° 0 mm 2 mps 661 mmHg 49%
02:00 +16°C° 0 mm 2 mps 661 mmHg 52%
03:00 +15°C° 0 mm 2 mps 660 mmHg 53%
04:00 +15°C° 0 mm 2 mps 660 mmHg 55%
05:00 +14°C° 0 mm 1 mps 660 mmHg 56%
06:00 +16°C° 0 mm 2 mps 661 mmHg 51%
07:00 +18°C° 0 mm 3 mps 662 mmHg 46%
08:00 +19°C° 0 mm 3 mps 663 mmHg 41%
09:00 +22°C° 0 mm 3 mps 663 mmHg 35%
10:00 +25°C° 0 mm 3 mps 663 mmHg 29%
11:00 +28°C° 0 mm 3 mps 664 mmHg 24%
12:00 +29°C° 0 mm 3 mps 663 mmHg 21%
13:00 +30°C° 0 mm 2 mps 663 mmHg 19%
14:00 +31°C° 0 mm 2 mps 662 mmHg 17%
15:00 +30°C° 0 mm 2 mps 662 mmHg 17%
16:00 +30°C° 0 mm 2 mps 661 mmHg 17%
17:00 +29°C° 0 mm 2 mps 661 mmHg 17%
18:00 +27°C° 0 mm 2 mps 661 mmHg 20%
19:00 +25°C° 0 mm 3 mps 661 mmHg 23%
20:00 +21°C° 0 mm 3 mps 661 mmHg 26%
21:00 +20°C° 0 mm 3 mps 661 mmHg 28%
22:00 +19°C° 0 mm 2 mps 661 mmHg 30%
23:00 +18°C° 0 mm 2 mps 661 mmHg 31%

4 August, Wednesday

Time Temperature Precipitation Wind Pressure Humidity
00:00 +17°C° 0 mm 2 mps 661 mmHg 32%
01:00 +16°C° 0 mm 2 mps 661 mmHg 33%
02:00 +15°C° 0 mm 2 mps 661 mmHg 33%
03:00 +14°C° 0 mm 2 mps 661 mmHg 33%
04:00 +13°C° 0 mm 2 mps 661 mmHg 33%
05:00 +13°C° 0 mm 2 mps 661 mmHg 33%
06:00 +14°C° 0 mm 2 mps 661 mmHg 31%
07:00 +16°C° 0 mm 2 mps 662 mmHg 30%
08:00 +17°C° 0 mm 3 mps 663 mmHg 28%
09:00 +20°C° 0 mm 3 mps 663 mmHg 25%
10:00 +24°C° 0 mm 3 mps 663 mmHg 22%
11:00 +27°C° 0 mm 3 mps 664 mmHg 19%
12:00 +28°C° 0 mm 3 mps 663 mmHg 18%
13:00 +30°C° 0 mm 2 mps 663 mmHg 16%
14:00 +31°C° 0 mm 1 mps 662 mmHg 14%
15:00 +30°C° 0 mm 1 mps 662 mmHg 14%
16:00 +30°C° 0 mm 1 mps 662 mmHg 14%
17:00 +29°C° 0 mm 2 mps 661 mmHg 15%
18:00 +26°C° 0 mm 1 mps 661 mmHg 18%
19:00 +24°C° 0 mm 1 mps 661 mmHg 21%
20:00 +21°C° 0 mm 1 mps 661 mmHg 24%
21:00 +20°C° 0 mm 1 mps 661 mmHg 28%
22:00 +18°C° 0 mm 1 mps 661 mmHg 32%
23:00 +16°C° 0 mm 2 mps 661 mmHg 35%
Show more